When you browse on this site, cookies collect data to enhance your experience and personalize the content and advertising you see.
Visit our Privacy Policy to learn more. By continuing to use the site, you agree to this use of cookies and data.
  • In Hungary
  • List of Countries
  • For 7 days
  • Water Temperature
  • Weather Map
  • News
  • Weather Widgets
  • user-avatar
    Login

    Hourly Weather Amersfoort

    Today, 8 December, Sunday

    Time Temperature Precipitation Wind Pressure Humidity
    00:00 +7°C° 0 mm 8 mps 756 mmHg 84%
    01:00 +6°C° 0 mm 8 mps 755 mmHg 84%
    02:00 +6°C° 0 mm 8 mps 753 mmHg 85%
    03:00 +6°C° 0 mm 8 mps 752 mmHg 85%
    04:00 +6°C° 0.2 mm 9 mps 751 mmHg 86%
    05:00 +6°C° 0.2 mm 9 mps 750 mmHg 87%
    06:00 +6°C° 0.2 mm 10 mps 750 mmHg 88%
    07:00 +7°C° 0.4 mm 10 mps 749 mmHg 88%
    08:00 +8°C° 0.4 mm 10 mps 748 mmHg 88%
    09:00 +8°C° 0.4 mm 10 mps 748 mmHg 88%
    10:00 +8°C° 0.2 mm 9 mps 748 mmHg 82%
    11:00 +9°C° 0.2 mm 8 mps 748 mmHg 76%
    12:00 +9°C° 0.2 mm 8 mps 748 mmHg 71%
    13:00 +9°C° 0 mm 7 mps 748 mmHg 71%
    14:00 +8°C° 0 mm 7 mps 748 mmHg 72%
    15:00 +7°C° 0 mm 6 mps 748 mmHg 73%
    16:00 +6°C° 0.3 mm 7 mps 748 mmHg 76%
    17:00 +6°C° 0.3 mm 7 mps 748 mmHg 78%
    18:00 +5°C° 0.3 mm 8 mps 747 mmHg 81%
    19:00 +5°C° 0.1 mm 7 mps 747 mmHg 80%
    20:00 +5°C° 0.1 mm 7 mps 747 mmHg 79%
    21:00 +5°C° 0.1 mm 7 mps 746 mmHg 77%
    22:00 +5°C° 0 mm 7 mps 746 mmHg 77%
    23:00 +4°C° 0 mm 7 mps 745 mmHg 76%

    Tomorrow, 9 December, Monday

    Time Temperature Precipitation Wind Pressure Humidity
    00:00 +4°C° 0 mm 8 mps 745 mmHg 76%
    01:00 +5°C° 0.2 mm 8 mps 744 mmHg 78%
    02:00 +5°C° 0.2 mm 9 mps 743 mmHg 79%
    03:00 +5°C° 0.2 mm 9 mps 742 mmHg 81%
    04:00 +5°C° 0.7 mm 8 mps 741 mmHg 82%
    05:00 +5°C° 0.7 mm 7 mps 741 mmHg 83%
    06:00 +5°C° 0.7 mm 6 mps 741 mmHg 84%
    07:00 +5°C° 0.5 mm 6 mps 741 mmHg 85%
    08:00 +6°C° 0.5 mm 5 mps 742 mmHg 86%
    09:00 +6°C° 0.5 mm 5 mps 742 mmHg 86%
    10:00 +5°C° 0.2 mm 6 mps 744 mmHg 83%
    11:00 +6°C° 0.2 mm 8 mps 745 mmHg 79%
    12:00 +6°C° 0.2 mm 9 mps 747 mmHg 75%
    13:00 +6°C° 0.1 mm 9 mps 749 mmHg 72%
    14:00 +5°C° 0.1 mm 8 mps 751 mmHg 69%
    15:00 +5°C° 0.1 mm 8 mps 752 mmHg 66%
    16:00 +5°C° 0 mm 8 mps 754 mmHg 67%
    17:00 +4°C° 0 mm 7 mps 756 mmHg 67%
    18:00 +4°C° 0 mm 7 mps 758 mmHg 68%
    19:00 +4°C° 0.1 mm 7 mps 759 mmHg 69%
    20:00 +3°C° 0.1 mm 6 mps 760 mmHg 70%
    21:00 +3°C° 0.1 mm 6 mps 762 mmHg 72%
    22:00 +3°C° 0 mm 6 mps 762 mmHg 72%
    23:00 +3°C° 0 mm 5 mps 763 mmHg 72%

    Day after tomorrow, 10 December, Tuesday

    Time Temperature Precipitation Wind Pressure Humidity
    00:00 +3°C° 0 mm 5 mps 764 mmHg 72%
    01:00 +3°C° 0 mm 4 mps 765 mmHg 74%
    02:00 +3°C° 0 mm 4 mps 765 mmHg 77%
    03:00 +3°C° 0 mm 3 mps 766 mmHg 79%
    04:00 +2°C° 0 mm 3 mps 766 mmHg 81%
    05:00 +2°C° 0 mm 3 mps 766 mmHg 83%
    06:00 +2°C° 0 mm 3 mps 766 mmHg 85%
    07:00 +2°C° 0 mm 3 mps 766 mmHg 83%
    08:00 +1°C° 0 mm 4 mps 766 mmHg 82%
    09:00 +1°C° 0 mm 4 mps 766 mmHg 80%
    10:00 +1°C° 0 mm 5 mps 766 mmHg 78%
    11:00 +2°C° 0 mm 5 mps 765 mmHg 75%
    12:00 +3°C° 0 mm 6 mps 765 mmHg 73%
    13:00 +3°C° 0 mm 6 mps 764 mmHg 73%
    14:00 +3°C° 0 mm 6 mps 763 mmHg 73%
    15:00 +2°C° 0 mm 7 mps 762 mmHg 73%
    16:00 +2°C° 0 mm 7 mps 761 mmHg 72%
    17:00 +1°C° 0 mm 8 mps 760 mmHg 71%
    18:00 +1°C° 0 mm 9 mps 760 mmHg 70%
    19:00 +2°C° 0.4 mm 9 mps 759 mmHg 72%
    20:00 +2°C° 0.4 mm 9 mps 758 mmHg 74%
    21:00 +2°C° 0.4 mm 9 mps 757 mmHg 76%
    22:00 +2°C° 0.3 mm 9 mps 756 mmHg 77%
    23:00 +3°C° 0.3 mm 9 mps 756 mmHg 78%

    11 December, Wednesday

    Time Temperature Precipitation Wind Pressure Humidity
    00:00 +3°C° 0.3 mm 9 mps 755 mmHg 79%
    01:00 +4°C° 0.2 mm 8 mps 755 mmHg 82%
    02:00 +5°C° 0.2 mm 6 mps 756 mmHg 85%
    03:00 +6°C° 0.2 mm 5 mps 756 mmHg 88%
    04:00 +5°C° 0 mm 5 mps 756 mmHg 87%
    05:00 +5°C° 0 mm 4 mps 756 mmHg 87%
    06:00 +4°C° 0 mm 3 mps 757 mmHg 86%
    07:00 +4°C° 0 mm 3 mps 757 mmHg 87%
    08:00 +4°C° 0 mm 3 mps 757 mmHg 88%
    09:00 +4°C° 0 mm 4 mps 757 mmHg 89%
    10:00 +5°C° 0 mm 4 mps 757 mmHg 85%
    11:00 +5°C° 0 mm 4 mps 756 mmHg 80%
    12:00 +6°C° 0 mm 4 mps 756 mmHg 75%
    13:00 +6°C° 0 mm 4 mps 755 mmHg 77%
    14:00 +5°C° 0 mm 4 mps 755 mmHg 79%
    15:00 +5°C° 0 mm 4 mps 755 mmHg 80%
    16:00 +4°C° 0.1 mm 4 mps 755 mmHg 82%
    17:00 +4°C° 0.1 mm 4 mps 754 mmHg 84%
    18:00 +4°C° 0.1 mm 4 mps 754 mmHg 86%
    19:00 +4°C° 0 mm 4 mps 754 mmHg 86%
    20:00 +3°C° 0 mm 5 mps 753 mmHg 86%
    21:00 +2°C° 0 mm 5 mps 753 mmHg 85%
    22:00 +2°C° 0.1 mm 5 mps 753 mmHg 86%
    23:00 +3°C° 0.1 mm 5 mps 752 mmHg 86%

    12 December, Thursday

    Time Temperature Precipitation Wind Pressure Humidity
    00:00 +3°C° 0.1 mm 5 mps 752 mmHg 86%
    01:00 +3°C° 0.1 mm 5 mps 752 mmHg 87%
    02:00 +4°C° 0.1 mm 4 mps 752 mmHg 88%
    03:00 +4°C° 0.1 mm 4 mps 752 mmHg 89%
    04:00 +3°C° 0.1 mm 4 mps 752 mmHg 88%
    05:00 +3°C° 0.1 mm 4 mps 753 mmHg 87%
    06:00 +2°C° 0.1 mm 3 mps 753 mmHg 87%
    07:00 +1°C° 0 mm 4 mps 754 mmHg 85%
    08:00 +1°C° 0 mm 4 mps 754 mmHg 84%
    09:00 +1°C° 0 mm 4 mps 754 mmHg 82%
    10:00 +2°C° 0 mm 5 mps 754 mmHg 79%
    11:00 +3°C° 0 mm 5 mps 754 mmHg 75%
    12:00 +4°C° 0 mm 6 mps 753 mmHg 72%
    13:00 +3°C° 0 mm 6 mps 753 mmHg 74%
    14:00 +3°C° 0 mm 6 mps 752 mmHg 76%
    15:00 +3°C° 0 mm 6 mps 751 mmHg 78%
    16:00 +3°C° 0 mm 7 mps 750 mmHg 79%
    17:00 +2°C° 0 mm 8 mps 749 mmHg 80%
    18:00 +2°C° 0 mm 9 mps 747 mmHg 81%
    19:00 +2°C° 0.8 mm 9 mps 746 mmHg 83%
    20:00 +3°C° 0.8 mm 10 mps 744 mmHg 85%
    21:00 +3°C° 0.8 mm 11 mps 742 mmHg 87%
    22:00 +5°C° 0.8 mm 10 mps 740 mmHg 88%
    23:00 +5°C° 0.8 mm 10 mps 738 mmHg 88%

    13 December, Friday

    Time Temperature Precipitation Wind Pressure Humidity
    00:00 +5°C° 0.8 mm 10 mps 736 mmHg 88%
    01:00 +6°C° 1.4 mm 9 mps 735 mmHg 87%
    02:00 +6°C° 1.4 mm 9 mps 734 mmHg 87%
    03:00 +6°C° 1.4 mm 8 mps 733 mmHg 86%
    04:00 +6°C° 0.5 mm 8 mps 733 mmHg 81%
    05:00 +5°C° 0.5 mm 7 mps 734 mmHg 77%
    06:00 +4°C° 0.5 mm 7 mps 734 mmHg 72%
    07:00 +4°C° 0.2 mm 7 mps 735 mmHg 72%
    08:00 +4°C° 0.2 mm 8 mps 736 mmHg 71%
    09:00 +4°C° 0.2 mm 8 mps 736 mmHg 71%
    10:00 +3°C° 0.2 mm 9 mps 737 mmHg 69%
    11:00 +3°C° 0.2 mm 9 mps 737 mmHg 67%
    12:00 +5°C° 0.2 mm 10 mps 737 mmHg 65%
    13:00 +3°C° 0.2 mm 9 mps 738 mmHg 66%
    14:00 +3°C° 0.2 mm 9 mps 738 mmHg 67%
    15:00 +3°C° 0.2 mm 9 mps 738 mmHg 68%
    16:00 +4°C° 0.1 mm 8 mps 738 mmHg 69%
    17:00 +4°C° 0.1 mm 8 mps 739 mmHg 70%
    18:00 +3°C° 0.1 mm 7 mps 739 mmHg 71%
    19:00 +3°C° 0 mm 7 mps 739 mmHg 71%
    20:00 +3°C° 0 mm 6 mps 740 mmHg 72%
    21:00 +3°C° 0 mm 6 mps 740 mmHg 72%
    22:00 +3°C° 0 mm 6 mps 740 mmHg 74%
    23:00 +3°C° 0 mm 6 mps 740 mmHg 76%
    Show more